Time,TemperatureF,DewpointF,PressureIn,WindDirection,WindDirectionDegrees,WindSpeedMPH,WindSpeedGustMPH,Humidity,HourlyPrecipIn,Conditions,Clouds,dailyrainin,SoftwareType,DateUTC
2013-04-10 00:02:00,55.9,51.7,28.81,WNW,293,2.6,4.6,86,0.10,,,0.00,WUHU216HW,2013-04-10 05:02:00,
2013-04-10 00:07:00,53.9,50.1,28.82,West,270,3.5,4.6,87,0.10,,,0.00,WUHU216HW,2013-04-10 05:07:00,
2013-04-10 00:12:00,53.2,49.4,28.83,NW,315,2.4,3.5,87,0.10,,,0.00,WUHU216HW,2013-04-10 05:12:00,
2013-04-10 00:17:00,52.7,48.9,28.84,West,270,2.4,3.5,87,0.10,,,0.00,WUHU216HW,2013-04-10 05:17:00,
2013-04-10 00:22:00,52.3,48.5,28.85,WNW,293,6.9,6.9,87,0.10,,,0.00,WUHU216HW,2013-04-10 05:22:00,
2013-04-10 00:27:00,51.8,48.0,28.86,NNW,338,5.5,6.9,87,0.10,,,0.00,WUHU216HW,2013-04-10 05:27:00,
2013-04-10 00:32:00,50.1,46.0,28.87,NW,315,6.7,6.7,86,0.14,,,0.05,WUHU216HW,2013-04-10 05:32:00,
2013-04-10 00:38:00,49.8,45.7,28.89,West,270,17.4,17.4,86,0.12,,,0.05,WUHU216HW,2013-04-10 05:38:00,
2013-04-10 00:43:00,49.8,45.7,28.88,West,270,17.4,17.4,86,0.12,,,0.05,WUHU216HW,2013-04-10 05:43:00,
2013-04-10 00:48:00,49.8,45.7,28.88,West,270,17.4,17.4,86,0.12,,,0.05,WUHU216HW,2013-04-10 05:48:00,
2013-04-10 00:53:00,49.8,45.7,28.88,West,270,17.4,17.4,86,0.12,,,0.05,WUHU216HW,2013-04-10 05:53:00,
2013-04-10 01:08:00,46.4,43.0,28.90,NW,315,17.4,17.4,88,0.06,,,0.05,WUHU216HW,2013-04-10 06:08:00,
2013-04-10 01:13:00,45.6,42.3,28.90,WNW,293,3.1,21.0,88,0.06,,,0.07,WUHU216HW,2013-04-10 06:13:00,
2013-04-10 01:19:00,45.3,42.0,28.90,WNW,293,13.1,21.0,88,0.08,,,0.09,WUHU216HW,2013-04-10 06:19:00,
2013-04-10 01:24:00,44.9,41.6,28.92,WNW,293,4.9,24.8,88,0.08,,,0.09,WUHU216HW,2013-04-10 06:24:00,
2013-04-10 01:29:00,44.9,41.6,28.92,NW,315,13.1,24.8,88,0.08,,,0.09,WUHU216HW,2013-04-10 06:29:00,
2013-04-10 01:34:00,44.7,41.4,28.91,NW,315,21.0,21.0,88,0.04,,,0.09,WUHU216HW,2013-04-10 06:34:00,
2013-04-10 01:39:00,44.2,40.6,28.90,North,0,0.0,21.0,87,0.04,,,0.09,WUHU216HW,2013-04-10 06:39:00,
2013-04-10 01:45:00,43.8,40.2,28.90,WNW,293,5.3,18.7,87,0.04,,,0.09,WUHU216HW,2013-04-10 06:45:00,
2013-04-10 01:50:00,43.8,40.2,28.89,North,0,11.1,11.1,87,0.04,,,0.09,WUHU216HW,2013-04-10 06:50:00,
2013-04-10 01:55:00,43.8,40.5,28.89,North,0,1.7,11.1,88,0.04,,,0.09,WUHU216HW,2013-04-10 06:55:00,
2013-04-10 02:00:00,43.8,40.5,28.88,NNW,338,11.6,11.6,88,0.04,,,0.09,WUHU216HW,2013-04-10 07:00:00,
2013-04-10 02:05:00,44.2,41.2,28.88,North,0,10.0,11.6,89,0.02,,,0.09,WUHU216HW,2013-04-10 07:05:00,
2013-04-10 02:11:00,44.4,41.4,28.88,NNW,338,14.5,14.5,89,0.02,,,0.09,WUHU216HW,2013-04-10 07:11:00,
2013-04-10 02:16:00,44.4,41.4,28.86,NNW,338,9.3,14.5,89,0.02,,,0.11,WUHU216HW,2013-04-10 07:16:00,
2013-04-10 02:21:00,44.4,41.4,28.85,NNW,338,4.9,14.5,89,0.02,,,0.11,WUHU216HW,2013-04-10 07:21:00,
2013-04-10 02:26:00,44.7,41.7,28.85,NE,45,5.1,6.2,89,0.04,,,0.12,WUHU216HW,2013-04-10 07:26:00,
2013-04-10 02:32:00,44.7,41.7,28.83,NE,45,0.0,5.1,89,0.04,,,0.12,WUHU216HW,2013-04-10 07:32:00,
2013-04-10 02:37:00,44.9,41.9,28.83,NE,45,7.1,7.1,89,0.04,,,0.12,WUHU216HW,2013-04-10 07:37:00,
2013-04-10 02:42:00,44.9,42.2,28.83,NNE,23,4.6,7.1,90,0.04,,,0.12,WUHU216HW,2013-04-10 07:42:00,
2013-04-10 02:47:00,45.3,42.6,28.83,NNE,23,4.6,6.9,90,0.04,,,0.12,WUHU216HW,2013-04-10 07:47:00,
2013-04-10 02:52:00,45.5,42.8,28.82,NNE,23,5.5,9.8,90,0.04,,,0.12,WUHU216HW,2013-04-10 07:52:00,
2013-04-10 02:57:00,45.6,42.9,28.81,NE,45,6.7,9.8,90,0.04,,,0.12,WUHU216HW,2013-04-10 07:57:00,
2013-04-10 03:02:00,46.0,43.3,28.80,NNE,23,5.8,6.7,90,0.04,,,0.12,WUHU216HW,2013-04-10 08:02:00,
2013-04-10 03:07:00,46.2,43.5,28.81,NNE,23,4.6,10.7,90,0.04,,,0.12,WUHU216HW,2013-04-10 08:07:00,
2013-04-10 03:12:00,46.5,43.8,28.80,North,0,10.0,10.7,90,0.02,,,0.12,WUHU216HW,2013-04-10 08:12:00,
2013-04-10 03:18:00,46.7,44.3,28.80,North,0,5.3,10.0,91,0.02,,,0.12,WUHU216HW,2013-04-10 08:18:00,
2013-04-10 03:23:00,46.9,44.2,28.83,North,0,0.0,10.0,90,0.00,,,0.12,WUHU216HW,2013-04-10 08:23:00,
2013-04-10 03:28:00,47.1,44.4,28.82,North,0,0.6,5.3,90,0.00,,,0.12,WUHU216HW,2013-04-10 08:28:00,
2013-04-10 03:33:00,47.3,44.6,28.82,North,0,4.4,11.8,90,0.00,,,0.12,WUHU216HW,2013-04-10 08:33:00,
2013-04-10 03:38:00,47.3,44.6,28.83,North,0,2.4,11.8,90,0.00,,,0.12,WUHU216HW,2013-04-10 08:38:00,
2013-04-10 03:43:00,47.4,44.7,28.82,North,0,2.9,6.9,90,0.00,,,0.12,WUHU216HW,2013-04-10 08:43:00,
2013-04-10 03:48:00,47.4,44.7,28.85,WNW,293,2.0,6.9,90,0.02,,,0.15,WUHU216HW,2013-04-10 08:48:00,
2013-04-10 03:53:00,47.3,44.6,28.85,West,270,1.7,5.8,90,0.02,,,0.15,WUHU216HW,2013-04-10 08:53:00,
2013-04-10 03:58:00,47.1,44.4,28.87,West,270,3.8,5.8,90,0.04,,,0.17,WUHU216HW,2013-04-10 08:58:00,
2013-04-10 04:03:00,47.1,44.4,28.89,WSW,248,6.4,6.4,90,0.04,,,0.17,WUHU216HW,2013-04-10 09:03:00,
2013-04-10 04:08:00,46.5,43.8,28.90,WSW,248,3.1,6.4,90,0.04,,,0.17,WUHU216HW,2013-04-10 09:08:00,
2013-04-10 04:13:00,46.0,43.3,28.89,WNW,293,5.5,6.4,90,0.06,,,0.17,WUHU216HW,2013-04-10 09:13:00,
2013-04-10 04:19:00,45.5,42.8,28.90,WSW,248,2.2,5.5,90,0.10,,,0.23,WUHU216HW,2013-04-10 09:19:00,
2013-04-10 04:24:00,44.9,42.2,28.88,NNW,338,0.0,8.9,90,0.12,,,0.25,WUHU216HW,2013-04-10 09:24:00,
2013-04-10 04:29:00,44.4,41.7,28.91,NW,315,1.3,8.9,90,0.14,,,0.27,WUHU216HW,2013-04-10 09:29:00,
2013-04-10 04:34:00,44.4,41.7,28.93,NW,315,0.0,1.3,90,0.18,,,0.31,WUHU216HW,2013-04-10 09:34:00,
2013-04-10 04:39:00,44.2,41.5,28.93,NW,315,0.0,0.0,90,0.22,,,0.33,WUHU216HW,2013-04-10 09:39:00,
2013-04-10 04:44:00,44.2,41.5,28.91,WNW,293,0.0,0.0,90,0.22,,,0.35,WUHU216HW,2013-04-10 09:44:00,
2013-04-10 04:49:00,44.0,41.3,28.91,West,270,4.0,4.0,90,0.22,,,0.37,WUHU216HW,2013-04-10 09:49:00,
2013-04-10 04:54:00,43.7,41.0,28.91,WSW,248,3.1,4.0,90,0.20,,,0.37,WUHU216HW,2013-04-10 09:54:00,
2013-04-10 04:59:00,43.5,40.8,28.92,West,270,0.8,5.5,90,0.20,,,0.37,WUHU216HW,2013-04-10 09:59:00,
2013-04-10 05:04:00,43.5,40.8,28.91,West,270,0.0,5.5,90,0.20,,,0.37,WUHU216HW,2013-04-10 10:04:00,
2013-04-10 05:09:00,43.3,40.6,28.91,West,270,1.3,1.3,90,0.18,,,0.37,WUHU216HW,2013-04-10 10:09:00,
2013-04-10 05:14:00,43.1,40.4,28.91,West,270,1.3,1.3,90,0.16,,,0.37,WUHU216HW,2013-04-10 10:14:00,
2013-04-10 05:19:00,42.9,40.2,28.91,West,270,0.0,1.3,90,0.14,,,0.37,WUHU216HW,2013-04-10 10:19:00,
2013-04-10 05:24:00,42.6,39.9,28.91,West,270,0.0,1.3,90,0.10,,,0.37,WUHU216HW,2013-04-10 10:24:00,
2013-04-10 05:29:00,42.4,39.4,28.91,West,270,0.0,3.5,89,0.06,,,0.37,WUHU216HW,2013-04-10 10:29:00,
2013-04-10 05:34:00,42.4,39.4,28.91,West,270,0.0,3.5,89,0.04,,,0.37,WUHU216HW,2013-04-10 10:34:00,
2013-04-10 05:39:00,42.4,39.4,28.91,West,270,0.0,0.0,89,0.02,,,0.37,WUHU216HW,2013-04-10 10:39:00,
2013-04-10 05:44:00,42.4,39.4,28.91,West,270,0.0,4.0,89,0.02,,,0.37,WUHU216HW,2013-04-10 10:44:00,
2013-04-10 05:50:00,42.4,39.4,28.91,West,270,0.0,4.0,89,0.00,,,0.37,WUHU216HW,2013-04-10 10:50:00,
2013-04-10 05:55:00,42.4,39.4,28.92,WNW,293,2.6,2.6,89,0.00,,,0.37,WUHU216HW,2013-04-10 10:55:00,
2013-04-10 06:00:00,42.0,39.0,28.93,WNW,293,0.0,2.6,89,0.00,,,0.37,WUHU216HW,2013-04-10 11:00:00,
2013-04-10 06:05:00,42.0,39.0,28.93,WNW,293,0.6,0.6,89,0.00,,,0.37,WUHU216HW,2013-04-10 11:05:00,
2013-04-10 06:10:00,41.9,38.8,28.93,West,270,4.2,4.2,89,0.00,,,0.37,WUHU216HW,2013-04-10 11:10:00,
2013-04-10 06:15:00,41.7,38.7,28.94,WSW,248,0.0,4.2,89,0.00,,,0.37,WUHU216HW,2013-04-10 11:15:00,
2013-04-10 06:20:00,41.5,38.5,28.95,WNW,293,0.0,2.6,89,0.00,,,0.37,WUHU216HW,2013-04-10 11:20:00,
2013-04-10 06:25:00,41.5,38.5,28.96,WSW,248,0.0,2.6,89,0.00,,,0.37,WUHU216HW,2013-04-10 11:25:00,
2013-04-10 06:30:00,41.3,38.3,28.95,WNW,293,0.0,2.6,89,0.00,,,0.37,WUHU216HW,2013-04-10 11:30:00,
2013-04-10 06:35:00,41.1,38.1,28.96,West,270,4.2,4.2,89,0.02,,,0.39,WUHU216HW,2013-04-10 11:35:00,
2013-04-10 06:40:00,41.1,38.1,28.96,West,270,0.0,4.2,89,0.02,,,0.39,WUHU216HW,2013-04-10 11:40:00,
2013-04-10 06:45:00,41.1,38.1,28.94,NW,315,8.5,8.5,89,0.02,,,0.39,WUHU216HW,2013-04-10 11:45:00,
2013-04-10 06:50:00,41.0,37.9,28.95,West,270,4.2,8.5,89,0.02,,,0.39,WUHU216HW,2013-04-10 11:50:00,
2013-04-10 06:55:00,40.8,37.8,28.93,NW,315,9.1,9.1,89,0.02,,,0.39,WUHU216HW,2013-04-10 11:55:00,
2013-04-10 07:00:00,40.8,37.8,28.92,NW,315,2.0,9.1,89,0.02,,,0.39,WUHU216HW,2013-04-10 12:00:00,
2013-04-10 07:05:00,40.8,37.8,28.92,NW,315,11.6,11.6,89,0.02,,,0.39,WUHU216HW,2013-04-10 12:05:00,
2013-04-10 07:11:00,40.8,37.8,28.91,West,270,3.3,11.6,89,0.02,,,0.39,WUHU216HW,2013-04-10 12:11:00,
2013-04-10 07:16:00,40.8,38.1,28.90,NNW,338,6.9,7.6,90,0.02,,,0.39,WUHU216HW,2013-04-10 12:16:00,
2013-04-10 07:21:00,40.8,38.1,28.90,NNW,338,0.0,7.3,90,0.02,,,0.39,WUHU216HW,2013-04-10 12:21:00,
2013-04-10 07:26:00,40.8,38.1,28.91,NNW,338,0.0,6.2,90,0.02,,,0.39,WUHU216HW,2013-04-10 12:26:00,
2013-04-10 07:31:00,41.0,38.3,28.91,NNW,338,5.3,6.2,90,0.00,,,0.39,WUHU216HW,2013-04-10 12:31:00,
2013-04-10 07:36:00,41.1,38.4,28.93,NNW,338,3.5,6.0,90,0.00,,,0.39,WUHU216HW,2013-04-10 12:36:00,
2013-04-10 07:41:00,41.1,38.4,28.93,NW,315,6.9,7.6,90,0.00,,,0.39,WUHU216HW,2013-04-10 12:41:00,
2013-04-10 07:46:00,41.1,38.4,28.93,NW,315,6.9,7.6,90,0.00,,,0.39,WUHU216HW,2013-04-10 12:46:00,
2013-04-10 07:51:00,41.1,38.4,28.94,NW,315,6.9,6.9,90,0.00,,,0.39,WUHU216HW,2013-04-10 12:51:00,
2013-04-10 07:56:00,41.3,38.6,28.94,NW,315,6.9,6.9,90,0.00,,,0.39,WUHU216HW,2013-04-10 12:56:00,
2013-04-10 08:02:00,41.3,38.6,28.93,NW,315,6.9,6.9,90,0.00,,,0.39,WUHU216HW,2013-04-10 13:02:00,
2013-04-10 08:07:00,41.3,38.6,28.92,NW,315,6.9,6.9,90,0.00,,,0.39,WUHU216HW,2013-04-10 13:07:00,
2013-04-10 08:12:00,41.3,38.6,28.95,NW,315,6.9,6.9,90,0.00,,,0.39,WUHU216HW,2013-04-10 13:12:00,
2013-04-10 08:17:00,41.3,38.6,28.95,NW,315,6.9,6.9,90,0.00,,,0.39,WUHU216HW,2013-04-10 13:17:00,
2013-04-10 09:05:00,40.6,37.6,29.00,WNW,293,4.0,4.0,89,0.00,,,0.39,WUHU216HW,2013-04-10 14:05:00,
2013-04-10 09:10:00,40.4,37.4,28.96,NW,315,7.6,7.6,89,0.00,,,0.39,WUHU216HW,2013-04-10 14:10:00,
2013-04-10 09:15:00,40.1,37.0,28.92,NNW,338,5.1,7.8,89,0.02,,,0.41,WUHU216HW,2013-04-10 14:15:00,
2013-04-10 09:21:00,39.7,36.7,28.91,NNW,338,14.3,14.7,89,0.02,,,0.41,WUHU216HW,2013-04-10 14:21:00,
2013-04-10 09:26:00,39.3,36.3,28.92,NNW,338,4.9,14.7,89,0.02,,,0.41,WUHU216HW,2013-04-10 14:26:00,
2013-04-10 09:31:00,39.5,36.8,28.94,West,270,0.0,14.3,90,0.04,,,0.43,WUHU216HW,2013-04-10 14:31:00,
2013-04-10 09:36:00,39.5,36.8,28.93,NW,315,6.7,6.7,90,0.04,,,0.43,WUHU216HW,2013-04-10 14:36:00,
2013-04-10 09:41:00,39.3,36.6,28.95,West,270,1.1,6.7,90,0.04,,,0.43,WUHU216HW,2013-04-10 14:41:00,
2013-04-10 09:46:00,39.3,36.6,28.98,West,270,2.9,3.1,90,0.04,,,0.43,WUHU216HW,2013-04-10 14:46:00,
2013-04-10 09:51:00,39.3,36.6,28.99,West,270,0.0,3.1,90,0.04,,,0.43,WUHU216HW,2013-04-10 14:51:00,
2013-04-10 09:56:00,39.3,36.6,29.00,West,270,1.1,2.9,90,0.06,,,0.45,WUHU216HW,2013-04-10 14:56:00,
2013-04-10 10:01:00,39.3,36.6,29.01,West,270,1.5,1.7,90,0.06,,,0.45,WUHU216HW,2013-04-10 15:01:00,
2013-04-10 10:07:00,39.3,36.6,29.02,West,270,0.0,1.5,90,0.08,,,0.47,WUHU216HW,2013-04-10 15:07:00,
2013-04-10 10:12:00,39.3,36.6,29.00,West,270,0.8,4.4,90,0.08,,,0.49,WUHU216HW,2013-04-10 15:12:00,
2013-04-10 10:17:00,39.5,36.8,28.95,NW,315,10.9,10.9,90,0.10,,,0.51,WUHU216HW,2013-04-10 15:17:00,
2013-04-10 10:22:00,39.3,36.6,28.96,NW,315,8.2,10.9,90,0.12,,,0.53,WUHU216HW,2013-04-10 15:22:00,
2013-04-10 10:27:00,39.5,36.8,28.98,NW,315,2.6,10.9,90,0.12,,,0.53,WUHU216HW,2013-04-10 15:27:00,
2013-04-10 10:32:00,39.5,36.8,28.99,NW,315,1.1,2.6,90,0.10,,,0.53,WUHU216HW,2013-04-10 15:32:00,
2013-04-10 10:37:00,39.5,36.8,28.98,WNW,293,0.2,4.9,90,0.10,,,0.53,WUHU216HW,2013-04-10 15:37:00,
2013-04-10 10:42:00,39.3,36.6,28.97,NW,315,3.5,6.4,90,0.12,,,0.55,WUHU216HW,2013-04-10 15:42:00,
2013-04-10 10:47:00,39.5,36.8,28.98,NW,315,0.0,6.4,90,0.12,,,0.55,WUHU216HW,2013-04-10 15:47:00,
2013-04-10 10:52:00,39.5,36.8,28.97,NW,315,4.4,6.7,90,0.10,,,0.55,WUHU216HW,2013-04-10 15:52:00,
2013-04-10 10:57:00,39.3,36.6,28.94,NNW,338,5.5,12.0,90,0.12,,,0.57,WUHU216HW,2013-04-10 15:57:00,
2013-04-10 11:02:00,39.3,36.6,28.94,NW,315,10.0,12.0,90,0.10,,,0.57,WUHU216HW,2013-04-10 16:02:00,
2013-04-10 11:07:00,39.3,36.6,28.94,NNW,338,0.8,10.0,90,0.10,,,0.57,WUHU216HW,2013-04-10 16:07:00,
2013-04-10 11:12:00,39.5,36.8,28.95,NNW,338,2.4,6.9,90,0.06,,,0.57,WUHU216HW,2013-04-10 16:12:00,
2013-04-10 11:17:00,39.9,37.2,28.94,NW,315,10.2,10.2,90,0.06,,,0.57,WUHU216HW,2013-04-10 16:17:00,
2013-04-10 11:22:00,39.9,37.2,28.95,NW,315,2.4,10.2,90,0.04,,,0.57,WUHU216HW,2013-04-10 16:22:00,
2013-04-10 11:28:00,40.1,37.4,28.95,NW,315,3.1,7.8,90,0.04,,,0.57,WUHU216HW,2013-04-10 16:28:00,
2013-04-10 11:33:00,39.9,37.2,28.95,NW,315,13.1,13.1,90,0.04,,,0.57,WUHU216HW,2013-04-10 16:33:00,
2013-04-10 11:38:00,39.9,37.2,28.93,WNW,293,6.9,13.1,90,0.02,,,0.57,WUHU216HW,2013-04-10 16:38:00,
2013-04-10 11:43:00,39.9,37.2,28.92,NW,315,9.3,10.2,90,0.02,,,0.57,WUHU216HW,2013-04-10 16:43:00,
2013-04-10 11:48:00,39.9,37.2,28.92,NW,315,7.1,11.1,90,0.04,,,0.59,WUHU216HW,2013-04-10 16:48:00,
2013-04-10 11:53:00,39.9,37.2,28.93,NW,315,6.2,11.1,90,0.02,,,0.59,WUHU216HW,2013-04-10 16:53:00,
2013-04-10 11:58:00,39.7,37.0,28.95,WSW,248,5.1,6.2,90,0.02,,,0.59,WUHU216HW,2013-04-10 16:58:00,
2013-04-10 12:03:00,39.7,37.0,28.97,WSW,248,3.1,6.2,90,0.02,,,0.59,WUHU216HW,2013-04-10 17:03:00,
2013-04-10 12:08:00,39.9,37.2,28.96,NNW,338,2.6,5.5,90,0.02,,,0.59,WUHU216HW,2013-04-10 17:08:00,
2013-04-10 12:13:00,39.5,36.8,28.95,WNW,293,5.8,6.2,90,0.04,,,0.59,WUHU216HW,2013-04-10 17:13:00,
2013-04-10 12:18:00,39.5,36.8,28.92,NNW,338,12.9,12.9,90,0.04,,,0.62,WUHU216HW,2013-04-10 17:18:00,
2013-04-10 12:23:00,39.9,37.2,28.93,NW,315,0.0,12.9,90,0.06,,,0.64,WUHU216HW,2013-04-10 17:23:00,
2013-04-10 12:28:00,40.4,37.7,28.93,NW,315,6.4,6.4,90,0.06,,,0.64,WUHU216HW,2013-04-10 17:28:00,
2013-04-10 12:33:00,41.1,38.4,28.92,NW,315,9.6,9.6,90,0.08,,,0.66,WUHU216HW,2013-04-10 17:33:00,
2013-04-10 12:38:00,41.5,38.8,28.93,NW,315,7.6,9.6,90,0.08,,,0.66,WUHU216HW,2013-04-10 17:38:00,
2013-04-10 12:44:00,41.5,38.8,28.93,NW,315,2.0,9.6,90,0.08,,,0.66,WUHU216HW,2013-04-10 17:44:00,
2013-04-10 12:49:00,41.7,39.0,28.93,NW,315,6.9,12.9,90,0.06,,,0.66,WUHU216HW,2013-04-10 17:49:00,
2013-04-10 12:54:00,41.7,38.7,28.93,West,270,5.5,12.9,89,0.06,,,0.66,WUHU216HW,2013-04-10 17:54:00,
2013-04-10 12:59:00,41.7,38.7,28.92,NW,315,5.1,6.9,89,0.06,,,0.66,WUHU216HW,2013-04-10 17:59:00,
2013-04-10 13:04:00,41.7,38.4,28.90,NW,315,4.2,15.8,88,0.06,,,0.66,WUHU216HW,2013-04-10 18:04:00,
2013-04-10 13:09:00,42.0,38.7,28.91,NW,315,13.6,15.8,88,0.04,,,0.66,WUHU216HW,2013-04-10 18:09:00,
2013-04-10 13:14:00,42.4,39.1,28.90,West,270,3.1,13.6,88,0.04,,,0.66,WUHU216HW,2013-04-10 18:14:00,
2013-04-10 13:19:00,42.4,38.8,28.89,NNW,338,8.9,13.6,87,0.04,,,0.66,WUHU216HW,2013-04-10 18:19:00,
2013-04-10 13:24:00,42.4,38.8,28.89,NNW,338,8.9,8.9,87,0.04,,,0.66,WUHU216HW,2013-04-10 18:24:00,
2013-04-10 13:29:00,42.4,38.8,28.89,NNW,338,8.9,8.9,87,0.04,,,0.66,WUHU216HW,2013-04-10 18:29:00,
2013-04-10 14:07:00,0.0,0.0,28.93,West,270,4.9,4.9,88,0.00,,,0.66,WUHU216HW,2013-04-10 19:07:00,
2013-04-10 14:12:00,0.0,-2.7,28.91,NW,315,3.5,4.9,88,0.00,,,0.66,WUHU216HW,2013-04-10 19:12:00,
2013-04-10 14:18:00,0.0,-2.7,28.93,West,270,0.6,6.4,88,0.00,,,0.66,WUHU216HW,2013-04-10 19:18:00,
2013-04-10 14:23:00,0.0,-2.7,28.93,West,270,4.6,6.4,88,0.00,,,0.66,WUHU216HW,2013-04-10 19:23:00,
2013-04-10 14:28:00,0.0,-2.7,28.93,West,270,0.8,4.6,88,0.00,,,0.66,WUHU216HW,2013-04-10 19:28:00,
2013-04-10 14:33:00,39.9,36.6,28.94,WNW,293,3.5,4.6,88,0.00,,,0.66,WUHU216HW,2013-04-10 19:33:00,
2013-04-10 14:38:00,39.7,36.4,28.94,West,270,5.1,5.1,88,0.00,,,0.66,WUHU216HW,2013-04-10 19:38:00,
2013-04-10 14:43:00,39.5,36.2,28.93,WSW,248,6.4,11.8,88,0.02,,,0.68,WUHU216HW,2013-04-10 19:43:00,
2013-04-10 14:48:00,39.5,36.2,28.93,NW,315,2.6,11.8,88,0.04,,,0.70,WUHU216HW,2013-04-10 19:48:00,
2013-04-10 14:53:00,39.5,36.2,28.93,West,270,5.3,6.4,88,0.04,,,0.70,WUHU216HW,2013-04-10 19:53:00,
2013-04-10 14:58:00,39.5,36.2,28.94,WNW,293,2.6,5.3,88,0.04,,,0.70,WUHU216HW,2013-04-10 19:58:00,
2013-04-10 15:03:00,39.3,36.3,28.92,WNW,293,6.2,6.2,89,0.04,,,0.70,WUHU216HW,2013-04-10 20:03:00,
2013-04-10 15:08:00,39.3,36.3,28.89,West,270,0.6,7.1,89,0.04,,,0.70,WUHU216HW,2013-04-10 20:08:00,
2013-04-10 15:14:00,39.3,36.3,28.90,NW,315,6.2,7.1,89,0.06,,,0.72,WUHU216HW,2013-04-10 20:14:00,
2013-04-10 15:19:00,39.0,36.0,28.91,NW,315,11.1,11.1,89,0.06,,,0.72,WUHU216HW,2013-04-10 20:19:00,
2013-04-10 15:24:00,39.0,36.0,28.90,WNW,293,7.1,11.1,89,0.08,,,0.74,WUHU216HW,2013-04-10 20:24:00,
2013-04-10 15:29:00,38.8,35.8,28.89,NW,315,10.9,11.1,89,0.08,,,0.74,WUHU216HW,2013-04-10 20:29:00,
2013-04-10 15:34:00,38.8,35.8,28.89,WNW,293,6.9,10.9,89,0.08,,,0.74,WUHU216HW,2013-04-10 20:34:00,
2013-04-10 15:39:00,39.0,36.0,28.89,NW,315,10.0,10.0,89,0.06,,,0.74,WUHU216HW,2013-04-10 20:39:00,
2013-04-10 15:44:00,39.3,36.3,28.89,NNW,338,8.5,10.0,89,0.06,,,0.74,WUHU216HW,2013-04-10 20:44:00,
2013-04-10 15:49:00,39.2,35.9,28.89,North,0,12.9,12.9,88,0.04,,,0.74,WUHU216HW,2013-04-10 20:49:00,
2013-04-10 15:54:00,39.3,36.0,28.89,WNW,293,4.2,12.9,88,0.04,,,0.74,WUHU216HW,2013-04-10 20:54:00,
2013-04-10 15:59:00,39.7,36.7,28.88,West,270,3.1,12.9,89,0.04,,,0.74,WUHU216HW,2013-04-10 20:59:00,
2013-04-10 16:04:00,39.7,36.4,28.88,NNW,338,0.4,18.1,88,0.04,,,0.74,WUHU216HW,2013-04-10 21:04:00,
2013-04-10 16:09:00,39.9,36.6,28.88,West,270,5.3,18.1,88,0.02,,,0.74,WUHU216HW,2013-04-10 21:09:00,
2013-04-10 16:14:00,39.9,36.6,28.86,WNW,293,6.4,11.1,88,0.02,,,0.74,WUHU216HW,2013-04-10 21:14:00,
2013-04-10 16:19:00,39.9,36.6,28.85,NW,315,5.8,6.4,88,0.02,,,0.74,WUHU216HW,2013-04-10 21:19:00,
2013-04-10 16:25:00,39.9,36.6,28.84,WNW,293,6.2,9.6,88,0.00,,,0.74,WUHU216HW,2013-04-10 21:25:00,
2013-04-10 16:30:00,39.9,36.6,28.84,NNW,338,3.1,9.6,88,0.00,,,0.74,WUHU216HW,2013-04-10 21:30:00,
2013-04-10 16:35:00,39.5,36.2,28.84,NW,315,8.0,8.2,88,0.00,,,0.74,WUHU216HW,2013-04-10 21:35:00,
2013-04-10 16:40:00,39.5,36.2,28.85,NW,315,12.0,12.0,88,0.00,,,0.74,WUHU216HW,2013-04-10 21:40:00,
2013-04-10 16:45:00,39.3,36.0,28.85,NW,315,7.6,12.0,88,0.00,,,0.74,WUHU216HW,2013-04-10 21:45:00,
2013-04-10 16:50:00,39.5,36.2,28.86,West,270,5.3,12.0,88,0.00,,,0.74,WUHU216HW,2013-04-10 21:50:00,
2013-04-10 16:55:00,39.5,36.2,28.86,WNW,293,7.1,7.6,88,0.02,,,0.74,WUHU216HW,2013-04-10 21:55:00,
2013-04-10 17:00:00,39.5,36.2,28.86,WNW,293,3.1,7.1,88,0.02,,,0.76,WUHU216HW,2013-04-10 22:00:00,
2013-04-10 17:05:00,39.5,36.5,28.86,WNW,293,0.0,7.1,89,0.02,,,0.76,WUHU216HW,2013-04-10 22:05:00,
2013-04-10 17:10:00,39.7,36.7,28.85,NW,315,6.9,7.1,89,0.02,,,0.76,WUHU216HW,2013-04-10 22:10:00,
2013-04-10 17:15:00,39.7,36.7,28.86,West,270,5.5,7.1,89,0.04,,,0.78,WUHU216HW,2013-04-10 22:15:00,
2013-04-10 17:20:00,39.9,36.9,28.86,West,270,1.7,5.5,89,0.04,,,0.78,WUHU216HW,2013-04-10 22:20:00,
2013-04-10 17:25:00,39.9,36.9,28.86,NW,315,6.9,6.9,89,0.04,,,0.78,WUHU216HW,2013-04-10 22:25:00,
2013-04-10 17:30:00,39.9,36.9,28.86,West,270,6.4,6.9,89,0.04,,,0.78,WUHU216HW,2013-04-10 22:30:00,
2013-04-10 17:35:00,39.9,36.9,28.85,NW,315,0.6,6.4,89,0.04,,,0.78,WUHU216HW,2013-04-10 22:35:00,
2013-04-10 17:41:00,40.1,37.0,28.83,WNW,293,5.5,5.5,89,0.04,,,0.78,WUHU216HW,2013-04-10 22:41:00,
2013-04-10 17:46:00,40.1,37.0,28.84,West,270,4.0,6.9,89,0.04,,,0.78,WUHU216HW,2013-04-10 22:46:00,
2013-04-10 17:51:00,39.9,36.9,28.84,WNW,293,3.5,6.9,89,0.04,,,0.78,WUHU216HW,2013-04-10 22:51:00,
2013-04-10 17:56:00,39.9,36.9,28.85,NW,315,3.8,3.8,89,0.02,,,0.78,WUHU216HW,2013-04-10 22:56:00,
2013-04-10 18:01:00,39.9,36.9,28.83,WNW,293,1.5,4.2,89,0.02,,,0.78,WUHU216HW,2013-04-10 23:01:00,
2013-04-10 18:07:00,39.7,36.7,28.84,NNW,338,2.4,4.2,89,0.02,,,0.78,WUHU216HW,2013-04-10 23:07:00,
2013-04-10 18:12:00,39.7,36.7,28.85,NNW,338,5.3,5.3,89,0.00,,,0.78,WUHU216HW,2013-04-10 23:12:00,
2013-04-10 18:17:00,39.9,36.9,28.85,West,270,3.8,5.3,89,0.00,,,0.78,WUHU216HW,2013-04-10 23:17:00,
2013-04-10 18:22:00,39.9,37.2,28.85,NW,315,6.0,6.0,90,0.00,,,0.78,WUHU216HW,2013-04-10 23:22:00,
2013-04-10 18:27:00,39.9,37.2,28.85,NW,315,7.8,7.8,90,0.00,,,0.78,WUHU216HW,2013-04-10 23:27:00,
2013-04-10 18:32:00,39.9,37.2,28.85,NW,315,4.4,8.0,90,0.00,,,0.78,WUHU216HW,2013-04-10 23:32:00,
2013-04-10 18:37:00,40.1,37.4,28.85,WNW,293,2.6,8.0,90,0.00,,,0.78,WUHU216HW,2013-04-10 23:37:00,
2013-04-10 18:42:00,40.1,37.4,28.85,WNW,293,7.1,7.1,90,0.00,,,0.78,WUHU216HW,2013-04-10 23:42:00,
2013-04-10 18:48:00,40.1,37.4,28.85,West,270,3.3,7.1,90,0.00,,,0.78,WUHU216HW,2013-04-10 23:48:00,
2013-04-10 18:53:00,40.1,37.4,28.85,West,270,4.0,7.1,90,0.00,,,0.78,WUHU216HW,2013-04-10 23:53:00,
2013-04-10 18:58:00,40.1,37.4,28.85,West,270,5.1,7.1,90,0.00,,,0.78,WUHU216HW,2013-04-10 23:58:00,
2013-04-10 19:03:00,40.1,37.4,28.86,WSW,248,6.9,7.1,90,0.00,,,0.78,WUHU216HW,2013-04-11 00:03:00,
2013-04-10 19:08:00,40.1,37.4,28.86,WNW,293,3.1,6.9,90,0.00,,,0.78,WUHU216HW,2013-04-11 00:08:00,
2013-04-10 19:13:00,39.9,37.2,28.86,West,270,3.5,4.0,90,0.00,,,0.78,WUHU216HW,2013-04-11 00:13:00,
2013-04-10 19:18:00,39.9,37.2,28.87,West,270,6.9,6.9,90,0.00,,,0.78,WUHU216HW,2013-04-11 00:18:00,
2013-04-10 19:23:00,39.7,37.0,28.87,SW,225,6.7,6.9,90,0.00,,,0.78,WUHU216HW,2013-04-11 00:23:00,
2013-04-10 19:28:00,39.9,37.2,28.88,West,270,0.6,6.7,90,0.00,,,0.78,WUHU216HW,2013-04-11 00:28:00,
2013-04-10 19:33:00,39.7,37.0,28.88,WSW,248,5.3,6.7,90,0.00,,,0.78,WUHU216HW,2013-04-11 00:33:00,
2013-04-10 19:38:00,39.5,36.8,28.88,WSW,248,1.5,5.3,90,0.00,,,0.78,WUHU216HW,2013-04-11 00:38:00,
2013-04-10 19:43:00,39.5,36.8,28.89,WSW,248,2.0,2.0,90,0.00,,,0.78,WUHU216HW,2013-04-11 00:43:00,
2013-04-10 19:48:00,39.3,36.6,28.88,West,270,0.0,4.0,90,0.00,,,0.78,WUHU216HW,2013-04-11 00:48:00,
2013-04-10 19:53:00,39.3,36.6,28.87,West,270,3.3,5.1,90,0.00,,,0.78,WUHU216HW,2013-04-11 00:53:00,
2013-04-10 19:58:00,39.3,36.6,28.87,West,270,1.5,5.1,90,0.00,,,0.78,WUHU216HW,2013-04-11 00:58:00,
2013-04-10 20:03:00,39.3,36.6,28.87,West,270,0.0,3.5,90,0.00,,,0.78,WUHU216HW,2013-04-11 01:03:00,
2013-04-10 20:08:00,39.0,36.3,28.87,West,270,0.6,3.5,90,0.00,,,0.78,WUHU216HW,2013-04-11 01:08:00,
2013-04-10 20:14:00,39.0,36.3,28.87,West,270,0.0,3.1,90,0.00,,,0.78,WUHU216HW,2013-04-11 01:14:00,
2013-04-10 20:19:00,39.0,36.3,28.87,WSW,248,5.5,5.5,90,0.00,,,0.78,WUHU216HW,2013-04-11 01:19:00,
2013-04-10 20:24:00,39.0,36.3,28.87,WSW,248,0.8,5.5,90,0.00,,,0.78,WUHU216HW,2013-04-11 01:24:00,
2013-04-10 20:29:00,39.0,36.3,28.87,WSW,248,0.0,6.0,90,0.00,,,0.78,WUHU216HW,2013-04-11 01:29:00,
2013-04-10 20:34:00,39.0,36.3,28.87,West,270,4.6,6.0,90,0.00,,,0.78,WUHU216HW,2013-04-11 01:34:00,
2013-04-10 20:39:00,39.0,36.3,28.87,West,270,4.9,4.9,90,0.00,,,0.78,WUHU216HW,2013-04-11 01:39:00,
2013-04-10 20:44:00,39.0,36.3,28.87,West,270,3.3,4.9,90,0.00,,,0.78,WUHU216HW,2013-04-11 01:44:00,
2013-04-10 20:49:00,39.0,36.3,28.87,West,270,2.4,3.3,90,0.00,,,0.78,WUHU216HW,2013-04-11 01:49:00,
2013-04-10 20:54:00,39.0,36.3,28.87,West,270,1.1,3.3,90,0.00,,,0.78,WUHU216HW,2013-04-11 01:54:00,
2013-04-10 20:59:00,39.0,36.3,28.87,West,270,0.0,3.3,90,0.00,,,0.78,WUHU216HW,2013-04-11 01:59:00,
2013-04-10 21:04:00,39.0,36.3,28.87,West,270,2.2,3.3,90,0.00,,,0.78,WUHU216HW,2013-04-11 02:04:00,
2013-04-10 21:09:00,38.8,36.4,28.87,West,270,0.0,4.0,91,0.00,,,0.78,WUHU216HW,2013-04-11 02:09:00,
2013-04-10 21:14:00,38.8,36.1,28.87,WNW,293,0.8,5.3,90,0.00,,,0.78,WUHU216HW,2013-04-11 02:14:00,
2013-04-10 21:19:00,38.8,36.1,28.88,WNW,293,0.8,5.3,90,0.00,,,0.78,WUHU216HW,2013-04-11 02:19:00,
2013-04-10 21:24:00,38.8,36.1,28.88,West,270,1.1,2.4,90,0.00,,,0.78,WUHU216HW,2013-04-11 02:24:00,
2013-04-10 21:30:00,38.8,36.1,28.87,West,270,0.8,2.4,90,0.00,,,0.78,WUHU216HW,2013-04-11 02:30:00,
2013-04-10 21:35:00,38.8,36.1,28.87,West,270,1.3,2.4,90,0.00,,,0.78,WUHU216HW,2013-04-11 02:35:00,
2013-04-10 21:40:00,38.8,36.1,28.88,West,270,0.0,2.9,90,0.00,,,0.78,WUHU216HW,2013-04-11 02:40:00,
2013-04-10 21:45:00,38.8,36.1,28.88,West,270,2.0,2.9,90,0.00,,,0.78,WUHU216HW,2013-04-11 02:45:00,
2013-04-10 21:50:00,38.8,36.1,28.88,West,270,2.0,3.8,90,0.00,,,0.78,WUHU216HW,2013-04-11 02:50:00,
2013-04-10 21:55:00,38.8,36.1,28.88,WSW,248,0.0,4.4,90,0.00,,,0.78,WUHU216HW,2013-04-11 02:55:00,
2013-04-10 22:00:00,38.8,36.1,28.88,WSW,248,4.2,4.4,90,0.00,,,0.78,WUHU216HW,2013-04-11 03:00:00,
2013-04-10 22:05:00,38.8,36.1,28.88,WSW,248,3.5,4.4,90,0.00,,,0.78,WUHU216HW,2013-04-11 03:05:00,
2013-04-10 22:10:00,38.8,36.1,28.89,WSW,248,0.6,5.8,90,0.00,,,0.78,WUHU216HW,2013-04-11 03:10:00,
2013-04-10 22:15:00,38.8,36.1,28.89,West,270,0.0,5.8,90,0.00,,,0.78,WUHU216HW,2013-04-11 03:15:00,
2013-04-10 22:20:00,38.8,36.1,28.89,West,270,2.9,3.8,90,0.00,,,0.78,WUHU216HW,2013-04-11 03:20:00,
2013-04-10 22:25:00,38.6,35.9,28.89,WNW,293,2.2,3.8,90,0.00,,,0.78,WUHU216HW,2013-04-11 03:25:00,
2013-04-10 22:31:00,38.4,35.7,28.89,West,270,2.6,3.1,90,0.00,,,0.78,WUHU216HW,2013-04-11 03:31:00,
2013-04-10 22:36:00,38.1,35.4,28.90,West,270,2.6,2.6,90,0.00,,,0.78,WUHU216HW,2013-04-11 03:36:00,
2013-04-10 22:41:00,38.1,35.4,28.90,West,270,2.6,2.6,90,0.00,,,0.78,WUHU216HW,2013-04-11 03:41:00,
2013-04-10 22:46:00,38.1,35.4,28.90,West,270,2.6,2.6,90,0.00,,,0.78,WUHU216HW,2013-04-11 03:46:00,
2013-04-10 22:52:00,38.1,35.4,28.90,WNW,293,2.0,2.6,90,0.00,,,0.78,WUHU216HW,2013-04-11 03:52:00,
2013-04-10 22:57:00,37.0,34.3,28.90,WSW,248,0.0,2.6,90,0.00,,,0.78,WUHU216HW,2013-04-11 03:57:00,
2013-04-10 23:00:00,36.8,34.1,28.90,WSW,248,0.0,2.4,90,0.00,,,0.78,WUHU216HW,2013-04-11 04:00:00,
2013-04-10 23:01:00,36.6,33.9,28.90,WSW,248,2.4,2.4,90,0.00,,,0.78,WUHU216HW,2013-04-11 04:01:00,
2013-04-10 23:02:00,36.6,33.9,28.90,WSW,248,2.4,2.4,90,0.00,,,0.78,WUHU216HW,2013-04-11 04:02:00,
2013-04-10 23:07:00,36.5,33.8,28.90,West,270,3.3,4.9,90,0.00,,,0.78,WUHU216HW,2013-04-11 04:07:00,
2013-04-10 23:12:00,36.3,33.6,28.90,West,270,2.4,4.9,90,0.00,,,0.78,WUHU216HW,2013-04-11 04:12:00,
2013-04-10 23:17:00,36.1,33.4,28.89,West,270,6.2,6.2,90,0.00,,,0.78,WUHU216HW,2013-04-11 04:17:00,
2013-04-10 23:22:00,35.9,33.2,28.89,West,270,2.0,6.2,90,0.00,,,0.78,WUHU216HW,2013-04-11 04:22:00,
2013-04-10 23:28:00,35.7,33.0,28.89,WSW,248,1.1,5.1,90,0.00,,,0.78,WUHU216HW,2013-04-11 04:28:00,
2013-04-10 23:33:00,35.7,33.0,28.89,WSW,248,5.8,7.3,90,0.00,,,0.78,WUHU216HW,2013-04-11 04:33:00,
2013-04-10 23:38:00,35.6,32.9,28.88,SW,225,0.0,7.3,90,0.00,,,0.78,WUHU216HW,2013-04-11 04:38:00,
2013-04-10 23:43:00,35.4,32.7,28.89,West,270,5.8,7.8,90,0.00,,,0.78,WUHU216HW,2013-04-11 04:43:00,
2013-04-10 23:48:00,35.2,32.5,28.89,West,270,4.4,7.8,90,0.00,,,0.78,WUHU216HW,2013-04-11 04:48:00,
2013-04-10 23:53:00,35.2,32.5,28.89,West,270,6.2,6.2,90,0.00,,,0.78,WUHU216HW,2013-04-11 04:53:00,
2013-04-10 23:58:00,35.2,32.5,28.88,West,270,6.0,8.5,90,0.00,,,0.78,WUHU216HW,2013-04-11 04:58:00,